Location: Dattensoll
(49.9928°N, 9.8954°E)
Time: 00:39:29
(UTC+00:00)

BREEZE-M R/B - Pass Details

Date: 19 May 2025
Orbit: 537 x 26535 km, 49.1° (Epoch: 22 June)

Event Time Altitude Azimuth Distance (km) Brightness Sun altitude
Rises 19:24:34 0° 265° (W) 16,793 10.7 -3.3°
Reaches altitude 10° 19:46:07 10° 269° (W) 10,786 9.6 -6.0°
Maximum altitude 20:11:22 85° 186° (S) 1,547 4.5 -8.9°
Drops below altitude 10° 20:16:21 10° 98° (E) 2,459 5.2 -9.5°
Enters shadow 20:17:06 - 98° (E) 2,781 5.4 -9.6°
